User: anonymous   Login
Location: Unspecified
(0.0000°N, 0.0000°E)
Time: 19:21:40
(UTC+00:00)
Language:

Jawsat - Orbit

View from above orbital plane
View from above orbital plane
View from above satellite
View from above satellite

Ground track
Ground track

The orbit data is extracted from the following two-line orbital elements,

1 26061U 00004A   19341.49896997  .00000033  00000-0  28472-4 0  9991
2 26061 100.2107 204.8058 0033582 175.9288 184.2175 14.41347186 43370
Epoch (UTC): 07 December 2019 11:58:31
Eccentricity: 0.0033582
inclination: 100.2107°
perigee height: 730 km
apogee height: 778 km
right ascension of ascending node: 204.8058°
argument of perigee: 175.9288°
revolutions per day: 14.41347186
mean anomaly at epoch: 184.2175°
orbit number at epoch: 4337

The dashed part of the orbit path shows where the satellite is in the earth's shadow,  

DLR